STARLINK-36371

Last updated on Fri Mar 27 2026 00:02:06 GMT+0000 (Coordinated Universal Time)

1 67938U 26037G 26085.50002314 .00159009 00000+0 26685-2 0 9999 2 67938 43.0003 97.3065 0001416 276.8891 105.2769 15.50505507 5905
UTC large
Height (km)
Speed (km/s)
/
Latitude / Longitude
Inclination (degrees)
Orbital Period (minutes)
Azimuth
Elevation
Range (km)
Doppler Factor

Next 0 passes for location: London (51.5072 / 0.1276)

Sorry there are no passes over London.